Location: Ku?niki
(51.4449°N, 17.8974°E)
Time: 16:05:29
(UTC+00:00)

Cosmos 2278 Rocket - Pass Details

Date: 18 September 2020
Orbit: 841 x 845 km, 71.0° (Epoch: 22 October)

Event Time Altitude Azimuth Distance (km) Brightness Sun altitude
Exits shadow 19:40:43 12° 52° (NE) 2,338 4.4 -24.7°
Drops below altitude 10° 19:41:09 10° 49° (NE) 2,469 4.5 -24.7°
Sets 19:43:58 0° 38° (NE) 3,409 5.4 -25.1°
